C4984 Weather Reports


Display with metric or nautical units.
time (UTC)temp
F
wind
direction
speed
MPH
gust
MPH
rain 1hr
in
rain 24hr
in
rain mn
in
humidity
%
barometer
mb
20260902195308 99 1 0.0 0.0 0.00 0.00 0.00 51 1011.2
20260902194324 100 1 0.0 0.0 0.00 0.00 0.00 48 1011.5
20260902193256 100 207 0.0 2.0 0.00 0.00 0.00 50 1011.5
20260902192230 99 25 0.0 3.0 0.00 0.00 0.00 50 1011.6
20260902190147 97 146 0.0 0.0 0.00 0.00 0.00 51 1011.7
20260902184029 99 162 1.0 5.0 0.00 0.00 0.00 51 1012.0
20260902182956 99 99 0.0 3.0 0.00 0.00 0.00 49 1012.0
20260902181956 98 353 1.0 5.0 0.00 0.00 0.00 54 1012.1
20260902181020 98 195 1.0 5.0 0.00 0.00 0.00 51 1012.1
20260902180028 97 172 0.0 4.0 0.00 0.00 0.00 54 1012.1
20260902175024 96 185 0.0 4.0 0.00 0.00 0.00 55 1012.2
20260902174004 96 154 0.0 4.0 0.00 0.00 0.00 53 1012.3
20260902173018 95 155 0.0 2.0 0.00 0.00 0.00 53 1012.3
20260902171951 96 301 1.0 4.0 0.00 0.00 0.00 52 1012.4
20260902170935 97 195 0.0 3.0 0.00 0.00 0.00 52 1012.6
20260902165920 97 103 0.0 3.0 0.00 0.00 0.00 52 1012.6
20260902163829 96 176 0.0 3.0 0.00 0.00 0.00 53 1012.8
20260902162846 96 93 0.0 2.0 0.00 0.00 0.00 52 1013.0
20260902160726 95 174 0.0 3.0 0.00 0.00 0.00 55 1013.0
20260902155705 94 160 0.0 3.0 0.00 0.00 0.00 59 1013.2
20260902154729 94 82 1.0 3.0 0.00 0.00 0.00 60 1013.2
20260902153743 94 35 0.0 2.0 0.00 0.00 0.00 59 1013.1
20260902152801 94 2 0.0 2.0 0.00 0.00 0.00 59 1013.2
20260902150648 93 82 0.0 2.0 0.00 0.00 0.00 62 1013.1
20260902142332 89 35 0.0 1.0 0.00 0.00 0.00 69 1012.8
20260902141312 88 6 0.0 2.0 0.00 0.00 0.00 69 1012.8
20260902140333 85 49 0.0 2.0 0.00 0.00 0.00 75 1012.8
20260902135356 83 51 0.0 1.0 0.00 0.00 0.00 81 1013.0
20260902134415 81 302 0.0 1.0 0.00 0.00 0.00 85 1013.0
20260902131138 77 231 0.0 2.0 0.00 0.00 0.00 94 1013.0
20260902130202 77 145 0.0 0.0 0.00 0.00 0.00 97 1013.0
20260902125215 76 115 0.0 0.0 0.00 0.00 0.00 98 1013.1
20260902124236 76 150 0.0 0.0 0.00 0.00 0.00 98 1013.2
20260902123208 75 68 0.0 0.0 0.00 0.00 0.00 98 1013.2
20260902122148 75 68 0.0 0.0 0.00 0.00 0.00 98 1013.1
20260902121211 74 68 0.0 0.0 0.00 0.00 0.00 98 1012.9
20260902120144 74 68 0.0 0.0 0.00 0.00 0.00 97 1012.9
20260902112852 74 68 0.0 0.0 0.00 0.00 0.00 97 1012.8
20260902111820 74 68 0.0 0.0 0.00 0.00 0.00 97 1012.8
20260902110830 73 68 0.0 0.0 0.00 0.00 0.00 97 1012.5
20260902105841 74 68 0.0 0.0 0.00 0.00 0.00 96 1012.4
20260902104846 74 68 0.0 0.0 0.00 0.00 0.00 96 1012.4
20260902103821 74 68 0.0 0.0 0.00 0.00 0.00 96 1012.2
20260902102800 74 68 0.0 0.0 0.00 0.00 0.00 96 1012.3
20260902100659 74 68 0.0 0.0 0.00 0.00 0.00 96 1012.2
20260902095712 74 68 0.0 0.0 0.00 0.00 0.00 96 1012.1
20260902094640 74 68 0.0 0.0 0.00 0.00 0.00 95 1012.1
20260902092525 74 68 0.0 0.0 0.00 0.00 0.00 95 1011.7
20260902091543 74 68 0.0 0.0 0.00 0.00 0.00 95 1011.7
20260902090533 74 68 0.0 0.0 0.00 0.00 0.00 94 1011.7
20260902085516 74 68 0.0 1.0 0.00 0.00 0.00 94 1011.7
20260902084522 74 96 0.0 0.0 0.00 0.00 0.00 94 1011.7
20260902083530 75 96 0.0 0.0 0.00 0.00 0.00 94 1011.6
20260902080258 75 125 0.0 0.0 0.00 0.00 0.00 94 1011.6
20260902075235 75 125 0.0 0.0 0.00 0.00 0.00 93 1011.6
20260902074237 75 125 0.0 0.0 0.00 0.00 0.00 93 1011.8
20260902072057 75 125 0.0 0.0 0.00 0.00 0.00 93 1011.8
20260902071047 75 125 0.0 0.0 0.00 0.00 0.00 93 1011.7
20260902070039 75 124 0.0 0.0 0.00 0.00 0.00 92 1011.7
20260902063956 76 125 0.0 0.0 0.00 0.00 0.00 93 1012.0
20260902063002 76 125 0.0 0.0 0.00 0.00 0.00 92 1012.0
20260902055745 76 125 0.0 0.0 0.00 0.00 0.00 90 1012.1
20260902053637 77 125 0.0 0.0 0.00 0.00 0.00 90 1011.8
20260902052615 77 125 0.0 0.0 0.00 0.00 0.00 90 1011.7
20260902051616 77 125 0.0 0.0 0.00 0.00 0.00 89 1011.7
20260902050554 77 125 0.0 0.0 0.00 0.00 0.00 89 1011.6
20260902045523 77 125 0.0 0.0 0.00 0.00 0.00 89 1011.5
20260902044506 77 125 0.0 0.0 0.00 0.00 0.00 89 1011.5
20260902043435 77 125 0.0 0.0 0.00 0.00 0.00 88 1011.4
20260902042429 77 125 0.0 0.0 0.00 0.00 0.00 88 1011.2
20260902041405 77 125 0.0 0.0 0.00 0.00 0.00 88 1011.2
20260902040427 77 125 0.0 0.0 0.00 0.00 0.00 88 1011.2
20260902035436 78 125 0.0 0.0 0.00 0.00 0.00 88 1011.2
20260902034419 78 125 0.0 0.0 0.00 0.00 0.00 86 1011.2
20260902032351 78 125 0.0 0.0 0.00 0.00 0.00 85 1011.3
20260902031403 78 125 0.0 0.0 0.00 0.00 0.00 85 1011.3
20260902030413 78 125 0.0 0.0 0.00 0.00 0.00 85 1011.3
20260902025406 79 125 0.0 0.0 0.00 0.00 0.00 84 1011.4
20260902023237 79 125 0.0 0.0 0.00 0.00 0.00 84 1011.4
20260902022225 79 125 0.0 0.0 0.00 0.00 0.00 84 1011.3
20260902021237 79 125 0.0 0.0 0.00 0.00 0.00 83 1011.3
20260902020207 80 125 0.0 0.0 0.00 0.00 0.00 83 1011.3
20260902014054 80 125 0.0 0.0 0.00 0.00 0.00 82 1010.8
20260902013116 80 125 0.0 0.0 0.00 0.00 0.00 80 1010.8
20260902012101 81 125 0.0 0.0 0.00 0.00 0.00 79 1010.7
20260902010017 82 125 0.0 0.0 0.00 0.00 0.00 78 1010.7
20260902005015 82 125 0.0 0.0 0.00 0.00 0.00 79 1010.6
20260902004022 83 125 0.0 0.0 0.00 0.00 0.00 77 1010.3
20260902003028 83 125 0.0 0.0 0.00 0.00 0.00 77 1010.3
20260902002020 84 125 0.0 0.0 0.00 0.00 0.00 77 1010.3
20260902000958 85 125 0.0 0.0 0.00 0.00 0.00 75 1010.4
20260901235951 86 125 0.0 0.0 0.00 0.00 0.00 72 1010.4
20260901235015 87 125 0.0 0.0 0.00 0.00 0.00 71 1010.5
20260901233943 88 125 0.0 0.0 0.00 0.00 0.00 65 1010.7
20260901232954 90 125 0.0 0.0 0.00 0.00 0.00 62 1010.7
20260901230843 93 89 0.0 0.0 0.00 0.00 0.00 56 1010.7
20260901225856 96 89 0.0 0.0 0.00 0.00 0.00 53 1010.6
20260901224823 98 89 0.0 0.0 0.00 0.00 0.00 51 1010.6
20260901223831 98 89 0.0 0.0 0.00 0.00 0.00 52 1010.6
20260901222810 98 89 0.0 0.0 0.00 0.00 0.00 52 1010.7
20260901221736 98 89 0.0 0.0 0.00 0.00 0.00 51 1010.7
20260901215550 98 222 0.0 3.0 0.00 0.00 0.00 50 1010.7
20260901214601 97 190 0.0 1.0 0.00 0.00 0.00 50 1010.7
20260901213622 97 205 0.0 0.0 0.00 0.00 0.00 48 1010.7
20260901212643 97 32 0.0 0.0 0.00 0.00 0.00 48 1010.7
20260901211655 98 176 0.0 1.0 0.00 0.00 0.00 46 1010.7
20260901210650 98 188 0.0 2.0 0.00 0.00 0.00 50 1010.7
20260901203347 96 264 0.0 0.0 0.00 0.00 0.00 51 1011.0
20260901202316 97 98 0.0 1.0 0.00 0.00 0.00 47 1011.1
20260901201321 98 124 0.0 6.0 0.00 0.00 0.00 48 1011.1
20260901200258 98 330 1.0 6.0 0.00 0.00 0.00 47 1011.1